Theta_e
313 313 313 313 314 314 314 314 314 315 317 315 313 310 312 310 313 317 318 318 318 313 315 316 319 321 322 326 328 328 327 329 328 327 327 327 327 325 323 326 325 325 327 327 327
312 312 313 313 313 313 313 312 314 316 317 316 311 309 311 311 323 316 316 313 313 314 317 317 319 320 322 323 326 329 330 330 327 326 328 328 328 326 327 326 327 328 327 327 327
312 312 312 312 312 312 312 312 313 314 314 314 311 309 311 314 322 318 314 313 314 316 316 317 318 320 321 322 322 327 328 326 326 323 324 327 327 327 328 329 321 321 327 328 328
311 311 312 312 312 312 311 313 313 315 313 312 310 309 310 323 320 317 313 314 314 315 315 316 317 319 321 320 319 322 323 322 324 319 320 322 322 323 320 319 317 318 324 328 329
311 311 312 312 311 309 311 312 315 317 316 312 309 310 318 321 317 314 314 314 315 315 315 316 316 317 318 317 317 319 318 317 317 316 317 318 320 322 318 318 317 317 323 325 327
310 311 311 312 308 310 310 313 313 313 314 312 309 309 322 317 314 313 314 314 315 315 315 316 315 315 315 315 317 316 317 318 318 318 317 319 318 319 318 318 318 318 317 319 325
311 311 311 311 310 310 313 312 312 312 311 309 310 318 317 315 314 313 314 314 314 315 316 315 315 315 314 314 316 318 317 318 319 318 317 319 320 318 317 319 319 318 318 318 317
311 311 308 309 309 312 312 311 311 310 310 311 311 322 316 313 314 314 314 314 314 315 315 315 315 315 315 317 317 319 320 320 316 319 317 318 322 318 318 319 318 318 318 318 317
310 307 307 309 310 314 312 313 314 313 313 313 321 320 315 313 315 315 314 315 315 315 315 314 317 318 318 320 319 319 321 319 316 316 317 319 322 318 318 318 318 317 317 316 316
307 306 308 309 312 314 314 317 316 318 316 320 318 317 315 317 316 314 313 314 315 315 316 317 318 320 318 319 321 319 317 316 317 317 318 320 320 319 318 317 317 316 315 315 315
306 306 308 309 313 316 317 318 321 320 318 319 319 317 316 315 314 314 313 314 315 315 316 317 319 318 318 317 317 317 317 317 316 315 319 320 320 319 318 317 316 315 314 313 313
305 306 307 310 312 315 316 320 316 318 317 316 316 316 315 315 315 315 314 315 315 315 316 317 319 317 315 316 316 316 317 317 316 315 318 319 319 318 317 315 314 313 313 312 312
305 305 306 310 309 315 316 315 314 317 319 316 316 316 316 316 316 315 315 315 316 316 316 317 317 314 315 316 316 317 317 317 317 316 317 319 320 320 317 315 313 312 312 311 311
305 305 307 307 310 311 314 312 315 317 321 317 317 316 316 316 316 314 314 315 316 317 315 317 315 315 316 316 316 318 315 315 316 317 320 318 323 321 318 315 312 311 310 310 310
305 306 306 308 311 314 312 314 317 320 323 317 317 315 315 316 316 316 314 315 316 316 315 316 316 316 317 317 315 318 316 317 317 318 318 318 317 321 318 316 312 309 309 309 309
305 306 306 309 311 309 310 316 319 321 321 319 317 318 317 316 316 315 318 317 315 316 317 316 314 316 316 315 315 315 316 317 317 318 320 319 319 321 318 317 312 309 307 307 307
305 306 307 307 310 308 312 320 320 319 317 319 319 317 318 317 317 317 319 319 321 320 319 317 316 315 314 316 316 316 318 322 323 322 322 318 317 321 317 314 311 308 307 306 305
305 307 306 306 308 309 318 318 318 319 320 316 318 316 318 318 317 318 319 320 319 320 319 318 319 316 313 316 316 317 318 320 320 320 321 317 319 321 314 310 308 307 306 306 305
306 308 308 307 310 312 317 318 323 321 316 317 317 317 318 318 318 318 319 319 317 317 322 319 318 313 313 313 314 317 317 316 317 316 317 318 319 317 312 309 308 307 307 306 305
311 310 308 306 308 313 319 319 318 314 315 316 319 318 319 319 318 318 319 315 316 315 316 318 319 314 314 313 314 314 314 317 318 318 319 318 318 321 315 311 309 308 307 305 305
310 312 308 307 309 316 318 318 314 311 313 317 318 318 318 318 319 319 318 313 311 314 314 316 316 316 315 315 316 316 315 315 315 316 316 316 320 315 317 313 310 308 306 305 304
309 314 307 308 316 316 318 315 307 311 311 312 313 315 316 314 318 319 317 314 308 312 316 314 317 317 316 313 313 314 315 315 316 316 316 316 315 311 315 313 310 308 305 304 303
311 311 309 309 316 315 311 309 308 310 308 311 310 310 311 312 316 317 314 307 307 312 313 313 316 315 315 315 314 315 312 313 314 315 315 315 315 310 313 312 309 307 305 304 303
310 313 312 311 310 314 313 311 309 305 305 306 307 307 310 310 310 314 313 306 305 306 305 308 314 315 315 315 313 315 313 311 311 313 312 312 313 311 310 310 308 306 304 303 303
309 309 306 314 311 312 311 310 309 308 305 305 306 306 308 309 309 309 308 305 304 303 305 308 311 311 310 310 309 309 310 309 309 309 309 309 309 309 309 308 307 305 303 302 302
310 309 307 306 306 310 307 310 309 305 306 305 306 303 304 306 305 306 303 303 303 302 303 302 305 303 303 303 303 303 303 303 303 303 304 304 305 304 305 304 304 303 302 302 302
302 303 309 302 307 308 307 307 307 304 302 302 303 303 303 302 301 301 301 301 301 301 301 301 302 302 301 301 302 303 303 303 303 302 303 305 304 302 302 303 303 303 302 301 301
Wind_Speed
16 16 16 16 17 17 17 16 15 13 13 11 9 6 6 8 2 2 6 4 3 5 3 3 2 1 1 3 2 3 3 7 4 5 5 3 4 3 1 6 9 7 11 8 14
16 16 17 17 18 18 18 17 14 13 12 10 7 5 4 4 3 7 2 2 4 5 3 2 2 1 3 2 1 4 4 5 5 4 5 6 9 4 4 6 8 11 11 10 13
17 17 18 18 19 18 17 15 13 13 11 9 5 2 2 1 5 5 1 2 4 5 3 2 0 2 2 1 2 3 7 4 5 7 6 3 8 7 6 10 10 10 8 6 9
18 19 19 19 18 18 15 14 15 14 11 7 3 1 0 2 1 3 1 3 4 5 3 2 2 1 1 2 2 2 4 2 2 4 5 6 5 13 13 8 9 6 6 4 7
19 19 19 19 18 14 12 15 15 14 10 6 3 3 1 5 7 3 2 3 3 2 4 2 1 1 2 2 2 1 2 1 2 3 2 1 5 6 13 12 10 7 2 2 5
20 21 20 19 13 11 13 10 9 7 4 5 6 5 4 4 2 3 2 1 3 1 3 4 4 4 3 1 3 2 1 2 2 3 2 3 6 0 13 10 11 8 8 6 5
19 19 18 15 9 12 7 5 5 2 3 8 8 3 2 7 2 2 2 2 3 2 2 4 3 5 0 3 1 3 7 5 5 4 5 9 10 9 10 8 10 10 9 7 7
18 18 14 9 11 7 4 6 7 8 9 8 6 3 5 2 2 3 2 3 2 3 3 2 2 1 3 2 4 6 7 7 6 1 3 4 7 10 10 9 10 11 11 10 9
19 16 11 9 11 3 6 8 11 11 9 6 1 6 7 3 1 3 2 1 2 1 1 1 3 1 4 8 8 8 3 3 6 3 3 6 9 8 9 9 10 12 12 11 11
17 14 10 10 7 6 6 5 5 6 3 0 3 5 4 3 2 2 1 0 3 2 4 4 4 6 6 7 3 5 5 4 2 4 6 8 8 7 9 10 11 12 12 13 13
16 13 9 7 5 6 3 1 5 4 10 6 5 9 6 3 2 2 1 3 3 5 4 2 6 3 5 4 5 1 2 3 4 3 3 6 7 6 7 10 11 12 13 14 14
14 13 8 4 9 4 2 2 4 4 8 5 4 7 4 2 3 4 2 4 3 3 3 5 3 6 3 2 3 3 4 3 4 1 5 6 6 6 7 9 11 12 14 15 15
14 13 9 3 6 9 7 4 3 4 3 4 4 4 2 4 2 5 6 1 3 3 2 6 8 1 3 3 5 3 5 0 5 5 5 8 8 8 7 8 10 12 12 14 16
11 13 10 2 2 2 3 4 3 2 6 4 2 3 1 1 2 4 7 4 3 3 2 2 3 2 3 4 4 6 2 1 4 5 4 12 1 9 9 8 10 11 12 13 15
8 10 7 5 2 2 2 3 2 2 4 3 4 3 2 2 2 4 4 3 3 3 4 5 2 2 4 4 3 6 1 2 4 8 9 10 6 10 9 7 8 10 11 13 14
4 10 5 4 6 2 3 1 2 5 2 4 2 3 3 4 3 2 2 3 1 3 2 3 1 2 5 2 2 3 4 5 5 7 6 11 9 9 6 9 7 9 10 12 13
3 6 8 4 2 3 0 3 5 4 1 4 2 2 3 3 3 5 6 9 4 3 5 5 3 3 1 4 3 5 6 4 5 5 1 3 5 8 8 8 8 8 9 10 12
4 2 6 6 2 1 4 5 5 3 3 2 1 1 1 2 3 2 3 2 8 6 4 4 6 2 2 2 5 4 5 6 6 6 3 4 4 6 8 8 9 9 9 9 11
6 2 2 6 2 1 5 6 4 3 1 2 3 5 4 2 3 3 4 3 6 9 5 4 4 4 3 2 3 4 4 4 6 10 6 4 5 5 9 9 8 8 8 8 9
1 3 3 6 2 4 5 4 2 2 2 3 4 2 3 3 4 4 2 4 3 6 6 5 4 1 3 2 1 5 4 4 5 4 8 5 4 3 14 12 10 8 7 7 8
2 3 4 4 3 4 3 4 4 3 2 4 1 2 0 1 2 2 4 4 5 5 5 5 3 6 3 1 5 2 4 4 3 4 5 9 4 8 10 12 11 9 7 6 6
2 3 6 3 2 2 3 3 1 3 2 2 1 3 2 1 1 2 2 4 7 5 4 5 5 5 3 4 2 3 4 5 4 1 4 4 3 4 3 10 9 8 6 5 5
1 2 4 3 2 4 6 5 4 2 3 1 2 3 0 2 2 1 3 3 6 4 3 6 3 4 7 4 3 2 3 2 3 3 8 8 1 2 3 7 7 8 5 4 4
2 2 3 3 2 6 7 6 4 3 3 3 2 1 3 3 1 3 4 2 3 6 4 3 4 8 8 3 3 3 3 2 5 4 9 9 6 7 4 7 7 6 3 2 4
3 2 2 2 3 5 3 5 7 4 2 0 2 0 2 3 3 4 2 4 3 4 1 2 5 4 8 6 7 9 9 9 10 10 8 9 5 5 2 6 7 5 3 3 2
1 2 3 3 2 6 1 4 6 5 1 1 2 2 1 1 4 2 1 1 2 1 1 2 1 4 9 2 6 10 10 8 9 10 10 11 10 4 2 2 5 7 3 2 1
3 1 2 2 3 4 2 6 7 8 3 3 6 5 6 6 4 4 3 2 3 3 1 2 2 2 2 1 7 10 9 6 0 1 4 6 4 2 3 6 7 7 6 4 3
Wind_Direction
343 339 337 333 328 326 326 325 325 326 320 314 316 320 337 348 54 145 68 42 341 340 352 268 244 97 18 73 4 275 233 112 110 105 103 85 123 85 49 102 68 58 56 95 135
340 337 333 329 329 329 326 325 322 318 314 314 313 322 2 5 244 91 46 50 9 21 325 266 80 223 93 57 18 287 101 74 49 68 80 78 62 86 197 144 91 102 88 112 146
336 333 333 331 329 325 322 319 319 316 311 303 299 303 5 146 223 75 59 40 8 360 350 351 201 273 87 322 4 337 95 129 98 49 11 69 74 31 354 72 17 345 25 132 167
334 332 330 327 324 322 323 323 319 312 292 276 272 260 132 250 122 81 78 25 20 353 301 295 237 192 170 102 42 171 89 20 98 41 357 37 339 81 44 15 336 325 341 149 190
333 331 328 326 326 329 328 318 312 302 286 248 206 168 118 183 80 49 50 356 359 359 19 340 303 223 160 115 181 97 93 338 24 313 312 299 49 81 33 6 14 4 16 288 232
334 331 331 328 332 337 327 322 318 312 276 199 173 156 252 141 61 31 5 8 34 7 38 14 15 342 88 87 292 77 102 88 88 116 88 140 58 319 13 355 27 28 35 7 350
332 330 327 325 331 334 340 355 352 27 126 149 153 158 244 86 82 46 73 88 43 20 76 42 7 273 108 146 124 167 148 139 81 110 116 140 70 39 2 11 28 33 40 33 34
335 335 338 340 339 347 48 55 75 88 111 124 136 247 79 108 120 48 148 115 93 71 85 24 359 114 275 106 196 211 218 195 72 154 124 234 89 37 12 23 30 33 36 32 38
342 349 348 352 348 79 95 92 91 91 100 108 212 273 113 139 139 17 21 184 144 134 70 264 249 265 183 218 185 199 227 176 144 46 196 239 114 46 27 37 36 31 31 29 29
348 354 353 1 15 116 119 107 99 73 63 255 264 173 164 93 21 345 59 218 259 234 228 228 230 234 219 218 280 163 192 178 236 89 117 103 109 73 47 44 41 35 31 27 25
352 353 353 7 39 122 114 206 199 159 50 31 49 88 97 99 175 93 36 213 237 243 251 175 250 221 47 357 353 15 266 245 94 129 110 118 108 79 60 52 44 39 34 28 24
359 359 355 18 51 95 33 327 32 5 94 58 81 84 54 347 152 92 312 257 240 264 244 216 247 69 49 5 316 296 274 164 85 154 243 158 118 87 70 63 52 44 39 33 26
6 4 2 32 54 57 80 68 3 336 161 79 52 55 32 313 46 46 338 295 303 249 298 309 67 86 280 224 243 222 286 331 307 159 242 183 189 167 105 80 68 55 48 44 38
7 11 16 72 76 57 56 348 341 329 195 95 118 73 191 307 113 8 6 322 205 331 308 359 89 273 229 248 279 267 63 273 193 218 271 204 99 170 140 98 68 57 49 44 39
5 10 35 72 46 37 348 323 301 258 238 72 82 348 21 322 63 63 348 247 352 27 268 80 150 244 253 25 320 50 39 257 255 261 285 209 253 118 158 120 78 61 52 49 46
55 31 58 38 63 46 341 303 267 228 134 120 63 359 184 37 57 21 4 46 349 272 228 61 96 298 12 73 5 126 220 233 257 255 247 230 213 154 179 121 112 80 61 52 49
199 28 52 46 42 332 52 221 235 280 165 98 58 27 92 67 82 26 48 45 19 275 185 157 142 125 291 239 165 224 249 237 206 198 316 84 218 66 102 102 105 92 74 60 52
181 50 34 42 30 84 208 226 253 46 34 76 7 170 244 330 93 102 184 145 42 338 290 277 184 181 25 329 339 229 306 297 304 325 41 153 243 115 119 119 114 103 89 74 59
133 150 46 345 10 277 251 233 36 55 86 181 181 223 165 192 298 177 54 49 28 7 322 309 157 121 60 311 299 127 233 9 293 259 269 146 112 143 156 151 141 115 100 80 66
235 208 30 332 305 234 256 55 112 39 312 224 230 282 212 140 228 233 188 32 7 10 334 30 271 149 111 231 157 280 5 246 197 271 271 185 213 112 180 175 158 151 118 94 74
206 229 2 326 267 237 290 67 117 70 319 325 302 182 29 199 290 170 70 58 360 324 315 329 245 140 192 327 18 209 222 226 301 274 291 297 82 357 173 174 174 148 122 101 75
266 224 349 328 204 24 104 84 7 93 47 42 30 38 336 13 184 165 149 38 360 325 340 24 312 266 34 50 305 285 312 287 268 273 248 290 305 357 105 159 170 145 131 104 82
274 63 9 306 220 121 130 105 63 141 49 48 113 16 108 145 227 183 105 52 14 13 10 4 211 268 170 172 150 33 31 359 301 267 266 275 347 51 147 141 153 151 149 111 80
262 199 88 63 344 139 147 147 125 57 92 71 102 222 177 152 85 157 152 88 27 18 327 291 284 274 296 10 345 213 196 320 312 274 287 281 360 131 157 166 166 148 170 120 76
359 71 354 108 82 115 95 159 153 142 105 188 127 280 244 177 173 152 154 160 96 11 273 319 267 303 281 277 267 274 271 269 254 269 269 293 324 338 200 199 190 167 177 163 94
18 160 106 95 117 139 182 148 167 117 317 149 262 130 192 118 15 162 199 288 21 67 333 13 281 298 280 236 267 274 265 265 268 273 273 278 282 62 75 171 178 200 181 238 356
96 49 272 167 157 226 82 135 156 138 74 57 128 136 113 77 33 32 8 39 18 321 309 278 277 256 249 317 302 268 244 224 244 234 284 260 57 154 197 222 223 240 206 263 315